User: anonymous   Login
Location: Caltech
(34.1382°N, 118.1253°W)
Time: 17:09:53
(UTC-07:00)
Language:

OAO 1 Rocket - Orbit

View from above orbital plane
View from above orbital plane
View from above satellite
View from above satellite

Ground track
Ground track

The orbit data is extracted from the following two-line orbital elements,

1 02144U 66031B   15185.48888920  .00000127  00000-0  43522-4 0  9994
2 02144 035.0412 193.1471 0008857 241.2934 118.6866 14.42437677584993
Epoch (UTC): 04 July 2015 11:44:00
Eccentricity: 0.0008857
inclination: 35.0412°
perigee height: 744 km
apogee height: 757 km
right ascension of ascending node: 193.1471°
argument of perigee: 241.2934°
revolutions per day: 14.42437677
mean anomaly at epoch: 118.6866°
orbit number at epoch: 58499

The dashed part of the orbit path shows where the satellite is in the earth's shadow,  

DLR